Retour au catalogue

STARLINK-34330

ActifCommunicationsVLEO
NORAD 64227·PAYLOAD·🇺🇸 United States

Lancé May 31, 2025 depuis Vandenberg Space Force Base

Loading…

Prochains Passages (prochaines 24 heures)

TLE

FraisSource: CelesTrak SupGP

Époque: Sep 14, 2026, 21:34 UTC

1 64227C 25117AA  26257.89909722  .00044177  00000+0  13050-2 0  2575
2 64227  53.1574 239.5931 0001402 102.4634 149.9126 15.34373062    14

Suivez STARLINK-34330 en temps réel avec AllMySat

Download on the App Store